INSAT-4B 1 30793U 07007A 21060.62204234 -.00000196 00000-0 00000-0 0 9995 2 30793 1.0589 94.8811 0006226 211.8642 162.3083 1.00271198 22824 SKYNET 5A 1 30794U 07007B 21060.69575670 -.00000278 00000-0 00000-0 0 9999 2 30794 1.1801 91.0320 0003394 254.6061 159.7039 1.00270153 51317 ARIANE 5 R/B 1 30795U 07007C 21060.41013738 .00000429 00000-0 21195-3 0 9990 2 30795 3.9300 212.6469 7075142 3.1618 359.4293 2.53555091122720